Wind_Speed
12 9 7 6 3 6 15 11 17 15 20 17 19 14 12 10 18 9 30 25 22 18 17 16 15 13 10 8 7 7 7 8 8 9 10 12 11 11 12 13 14 16 17 17 16 16 16 16 15
9 7 5 6 10 20 13 16 18 19 29 21 17 17 11 13 5 25 30 27 22 19 19 18 15 11 8 6 6 7 7 7 6 7 9 11 11 12 13 15 18 18 18 17 17 15 16 15 15
9 5 5 4 9 10 9 21 14 34 22 22 24 16 12 6 12 29 27 26 20 17 19 16 13 9 6 7 7 7 6 6 8 9 10 11 12 13 15 16 19 20 19 17 16 16 16 16 14
7 5 4 10 14 19 22 17 16 12 20 12 14 15 14 14 28 25 26 23 19 17 16 14 11 8 9 8 7 7 8 10 11 11 12 14 14 15 16 18 21 20 19 17 16 17 17 17 17
4 3 2 2 12 22 30 20 17 20 18 15 11 19 24 27 24 23 24 21 18 16 14 11 9 10 9 8 6 8 10 11 12 13 13 15 16 17 18 20 21 20 16 17 16 17 17 17 17
9 5 3 4 11 27 30 21 17 18 12 13 12 26 28 21 23 24 22 22 18 12 12 9 9 9 9 7 7 10 11 12 12 14 16 17 19 19 20 20 18 17 16 15 16 15 16 16 16
14 10 8 7 6 24 28 23 22 17 13 16 19 27 28 25 27 25 22 20 16 13 10 9 9 9 8 7 9 11 12 15 15 16 18 20 20 20 22 21 21 18 14 13 14 15 16 17 18
9 10 6 1 9 26 29 22 24 14 15 19 14 17 29 31 28 25 17 16 18 14 11 9 8 8 7 9 11 12 14 17 17 18 21 20 21 21 21 20 18 15 13 12 12 13 15 17 16
9 5 3 3 12 34 28 30 31 23 19 15 12 12 26 24 24 22 15 13 16 16 14 11 8 9 8 11 13 12 14 17 19 19 21 22 22 21 20 19 16 14 13 12 12 13 14 19 24
1 7 5 7 21 41 32 28 32 27 24 19 14 24 21 21 20 16 11 13 14 16 15 12 8 9 8 11 14 14 12 16 18 22 20 22 22 22 20 17 15 13 13 12 13 12 15 20 19
7 12 12 12 23 32 28 17 30 22 22 18 20 30 23 21 16 11 12 6 14 17 15 13 7 7 7 10 12 13 14 14 19 20 21 21 21 22 21 18 17 15 14 10 13 12 14 17 18
6 4 10 15 23 28 23 14 16 15 12 12 17 24 24 17 15 8 7 8 17 16 13 9 7 5 4 8 13 11 12 13 16 17 20 19 17 18 18 16 13 15 12 9 10 15 12 12 14
4 7 6 14 17 23 18 10 16 14 17 20 25 25 27 18 14 8 6 7 10 6 10 6 8 4 2 12 11 13 13 16 16 17 12 12 17 15 14 15 14 13 13 11 10 14 15 14 16
4 3 11 17 18 17 14 14 10 19 13 25 32 22 21 24 13 10 7 5 7 5 2 5 6 5 5 11 13 13 15 18 16 11 9 11 13 16 13 12 13 12 15 12 15 14 13 11 13
13 12 13 16 18 17 14 15 13 11 19 24 37 28 25 14 17 12 3 6 8 3 2 6 6 6 7 13 13 13 14 15 15 14 13 14 11 11 12 13 14 15 14 14 14 16 15 14 11
12 13 17 14 23 16 11 14 24 23 26 25 33 34 27 21 22 18 10 7 9 3 2 6 7 8 9 9 10 10 11 11 11 10 13 13 12 10 13 11 11 11 14 14 12 13 16 18 16
11 18 16 7 20 18 12 13 9 29 28 22 33 33 32 32 23 22 19 15 9 6 8 10 11 11 10 7 10 9 4 11 10 9 7 7 9 7 6 12 13 13 12 11 13 17 18 14 13
14 18 13 10 20 19 15 11 3 18 29 28 32 34 33 29 28 24 22 18 12 9 9 7 12 13 10 11 10 11 9 11 7 7 7 8 8 9 8 7 14 9 10 14 15 14 14 11 17
13 10 6 10 21 17 16 11 5 11 31 28 27 36 33 34 29 24 21 14 14 10 7 9 10 13 12 10 9 13 10 9 10 7 7 9 8 7 6 13 15 13 12 12 16 15 15 15 20
15 12 7 11 17 14 18 14 9 15 22 30 29 38 35 35 31 29 25 17 19 13 8 8 5 13 12 11 11 13 12 10 10 8 7 8 9 9 8 8 12 17 10 10 13 13 12 8 14
16 13 9 13 17 14 11 11 19 21 23 25 33 35 34 36 33 33 30 23 16 15 11 11 8 9 13 13 12 14 10 12 9 8 7 9 10 9 9 8 11 9 11 12 14 12 11 14 12
18 12 12 16 19 16 13 7 19 21 28 26 32 37 35 38 33 31 29 28 20 16 14 10 9 11 15 15 13 13 13 12 10 9 9 8 8 7 8 9 9 11 10 15 16 13 13 13 11
22 13 16 17 25 20 20 4 14 21 30 29 31 35 38 35 36 35 29 24 22 18 13 13 11 13 14 16 14 12 13 11 7 9 8 8 9 8 8 9 8 9 10 12 19 13 16 14 15
17 14 12 15 26 11 15 17 11 31 34 31 29 33 32 32 33 30 27 23 20 17 16 13 15 10 16 17 16 13 13 9 11 10 10 8 9 8 8 8 10 12 12 10 15 13 14 18 20
22 16 5 5 6 6 21 17 25 28 28 29 25 18 23 29 28 33 30 29 25 18 15 16 15 16 18 21 19 15 13 12 13 12 9 8 6 5 8 10 13 14 12 12 11 14 17 21 22
19 15 6 5 4 8 9 8 9 29 29 28 27 18 23 29 30 34 30 29 27 25 17 13 16 14 17 21 20 16 15 12 11 11 9 8 8 8 9 8 10 11 12 12 12 15 15 19 19
17 15 17 10 14 7 9 9 13 24 30 31 34 33 22 27 32 39 31 31 30 28 26 22 14 15 14 17 20 19 16 15 16 11 11 14 12 9 9 7 6 7 8 11 12 14 17 23 22
21 11 7 11 2 3 5 7 7 21 33 38 38 35 27 29 30 34 35 30 27 28 28 26 19 19 8 14 16 19 18 16 18 19 16 14 13 9 11 8 7 6 7 8 9 11 13 17 19
23 18 11 3 3 6 5 1 10 22 30 35 34 28 26 26 26 26 28 25 24 29 26 31 28 25 20 20 19 19 19 18 19 20 19 16 12 12 7 10 10 7 7 8 7 7 10 12 19
21 6 11 16 6 2 7 6 8 21 25 25 25 22 24 22 22 23 25 25 21 24 20 33 32 29 25 21 22 21 21 20 18 16 19 18 15 14 14 12 13 12 10 8 6 5 8 11 11
Wind_Direction
168 163 142 144 116 132 145 152 152 166 163 163 150 150 118 138 135 146 149 142 141 142 138 138 138 137 118 106 94 91 96 90 94 100 105 107 112 113 109 109 111 112 116 111 106 92 92 88 93
163 166 168 141 123 126 190 136 141 131 163 175 172 183 167 153 158 156 148 140 139 133 132 131 128 124 116 103 93 92 85 87 97 111 118 119 117 112 114 114 112 114 115 113 106 96 95 95 90
164 164 194 121 144 224 174 138 113 129 137 142 148 182 164 158 138 149 147 140 144 140 136 131 128 126 123 116 104 95 90 82 95 112 125 126 119 113 112 111 112 115 112 107 100 96 94 93 88
147 163 147 209 185 165 158 144 129 137 148 171 165 163 158 139 150 149 146 141 144 143 137 132 129 122 119 107 100 93 90 98 96 97 110 121 118 114 113 115 119 119 109 100 99 96 91 89 84
114 92 92 217 120 158 156 155 145 142 147 162 167 140 136 140 152 149 143 144 146 143 135 133 123 122 111 105 98 101 106 103 104 107 107 118 119 116 115 120 116 116 97 91 88 86 92 91 87
49 18 320 22 108 163 159 162 149 177 180 149 171 143 128 141 147 148 146 143 146 141 132 126 119 115 111 103 100 105 102 95 98 112 115 116 117 117 116 119 117 115 99 95 91 93 98 91 87
48 36 10 131 107 167 161 142 133 143 142 139 148 138 132 140 145 147 143 146 149 140 130 123 124 117 108 103 106 107 94 86 91 109 119 117 119 117 118 115 119 119 103 100 103 98 100 104 103
24 8 13 51 157 164 157 145 145 159 131 143 159 156 142 139 135 144 146 149 147 144 136 133 128 118 112 105 116 107 94 84 91 105 116 117 119 121 123 121 121 117 107 103 95 101 104 103 105
7 346 8 73 162 161 150 142 144 146 147 152 175 176 142 137 134 139 135 151 147 145 143 139 133 129 118 111 119 106 105 95 96 105 116 119 121 124 125 122 122 116 113 108 101 100 101 103 109
307 82 59 111 148 151 153 157 153 149 159 156 154 147 148 145 136 135 145 152 154 153 147 138 143 121 119 118 126 122 112 104 108 113 115 118 123 124 122 120 113 107 100 98 91 99 99 110 116
97 99 85 132 163 159 160 149 157 157 162 171 175 161 152 152 136 142 153 172 156 145 140 126 139 122 113 126 132 130 125 102 111 121 118 116 120 121 123 122 119 114 110 89 84 108 99 109 122
105 32 94 125 166 170 174 157 157 167 165 163 197 163 159 154 142 135 150 151 149 154 149 113 119 111 137 141 146 149 132 126 120 119 122 124 122 117 124 119 110 123 129 113 97 127 114 93 105
231 315 162 142 162 175 181 169 158 177 143 156 184 166 156 155 138 153 159 132 156 173 145 112 123 102 106 138 145 145 137 134 121 123 129 131 130 126 128 120 119 121 118 116 109 111 116 108 100
249 289 170 160 166 174 180 174 170 164 157 160 178 174 166 183 156 200 189 183 169 121 150 170 168 134 144 143 149 147 131 130 122 118 139 131 142 126 129 131 125 134 117 119 103 102 95 89 86
247 232 232 198 176 171 174 168 173 173 161 167 172 175 186 171 196 210 182 201 236 95 313 182 181 151 153 150 149 139 130 124 124 127 120 119 129 128 137 130 139 114 114 106 108 106 105 107 95
214 212 188 188 184 186 177 167 162 159 166 167 175 163 171 196 199 191 223 225 239 241 280 253 203 167 183 157 129 147 123 134 134 122 127 129 130 134 139 150 128 133 129 136 115 113 107 113 110
206 205 209 234 205 188 182 160 135 173 178 176 176 170 173 190 206 195 208 228 248 267 278 245 199 174 180 170 154 153 163 145 143 135 144 129 132 141 144 147 146 144 127 123 123 117 106 110 115
176 212 235 211 191 207 205 181 187 183 186 188 183 180 181 190 201 216 215 224 241 255 272 252 221 184 186 174 172 172 160 154 156 149 151 178 139 147 141 170 153 156 139 133 137 125 122 111 123
188 193 261 225 193 207 208 211 202 178 196 189 188 183 185 195 202 213 216 224 225 251 265 261 233 196 189 191 166 171 164 159 157 183 200 165 154 164 168 145 145 160 164 157 146 140 137 105 116
209 235 277 183 180 212 205 188 214 222 210 194 188 186 193 201 198 209 219 227 241 246 252 249 234 216 191 189 192 186 160 168 149 163 184 169 169 185 166 157 160 156 157 172 158 147 159 149 122
222 238 245 222 193 195 206 190 199 210 206 201 187 194 200 201 209 209 214 227 230 237 268 245 220 212 209 202 198 206 182 169 169 170 165 168 175 188 170 167 183 190 180 181 169 174 174 159 132
239 213 248 237 227 189 185 212 210 219 209 203 194 198 203 205 214 219 225 226 228 229 247 249 229 201 217 216 199 192 202 189 180 183 184 174 187 179 186 187 182 177 196 185 174 164 172 174 153
238 236 260 261 224 212 205 188 258 197 198 204 200 203 208 214 215 219 226 229 234 229 241 249 241 217 221 225 216 221 194 194 170 177 176 184 197 192 204 182 184 199 165 180 179 174 191 185 165
233 259 262 227 196 181 214 222 223 198 205 201 201 210 217 219 224 223 232 235 239 236 230 248 228 227 238 232 224 217 230 214 199 188 193 204 196 198 209 184 185 176 172 167 189 197 198 185 177
231 244 189 193 208 201 232 212 228 220 208 206 196 181 220 220 232 229 235 241 235 227 236 236 231 248 251 235 225 216 219 230 202 207 197 212 192 195 199 168 177 191 192 203 204 190 199 188 185
228 239 196 182 182 218 149 205 225 223 207 200 189 195 199 213 224 226 233 240 240 234 236 239 245 256 253 223 224 219 214 217 214 198 189 214 211 193 214 188 182 194 194 199 206 205 203 198 199
234 230 222 269 278 253 139 164 176 189 190 198 198 211 226 214 208 217 222 224 229 232 231 244 242 233 246 221 218 219 213 217 217 229 214 215 211 201 216 210 211 211 212 203 208 204 207 207 210
231 215 232 228 186 210 129 129 193 189 189 200 210 218 219 215 209 209 214 227 223 232 229 232 223 226 231 224 221 221 216 213 217 227 227 226 216 216 199 211 218 223 243 226 205 206 203 201 200
225 235 239 237 220 168 142 106 176 189 194 204 212 227 232 213 216 222 220 219 249 234 242 242 215 216 215 208 209 211 218 221 223 229 231 229 229 214 212 217 200 207 221 222 219 192 187 203 210
226 217 243 234 218 129 123 146 181 204 204 209 219 226 221 223 223 228 224 223 218 218 245 236 220 219 215 214 211 208 209 210 220 225 232 227 222 219 226 232 219 236 221 225 227 231 208 206 205
Height
3170 3172 3174 3174 3179 3175 3180 3177 3179 3180 3183 3186 3187 3188 3190 3190 3190 3195 3195 3197 3199 3202 3203 3205 3207 3208 3209 3209 3209 3209 3209 3209 3209 3209 3208 3208 3209 3209 3210 3211 3211 3212 3213 3213 3213 3213 3212 3211 3211
3171 3173 3175 3175 3176 3175 3177 3180 3177 3180 3183 3183 3187 3189 3189 3190 3190 3192 3194 3198 3201 3203 3205 3207 3209 3210 3210 3210 3210 3210 3209 3209 3209 3209 3209 3210 3210 3211 3211 3212 3212 3213 3215 3215 3216 3216 3215 3215 3214
3171 3174 3178 3176 3177 3176 3179 3179 3180 3180 3185 3187 3187 3190 3190 3191 3191 3194 3198 3199 3203 3205 3207 3208 3210 3211 3211 3211 3212 3211 3211 3210 3210 3210 3211 3211 3212 3213 3213 3213 3214 3216 3217 3217 3218 3219 3218 3218 3218
3172 3175 3176 3173 3172 3173 3179 3180 3181 3179 3185 3187 3188 3189 3191 3192 3194 3197 3199 3202 3205 3208 3209 3211 3212 3212 3212 3212 3212 3212 3211 3211 3211 3211 3211 3212 3213 3215 3215 3216 3218 3219 3220 3220 3221 3221 3221 3222 3221
3174 3174 3173 3170 3170 3174 3176 3181 3183 3184 3184 3186 3188 3188 3189 3195 3198 3200 3201 3204 3208 3210 3212 3213 3214 3214 3214 3214 3214 3213 3213 3212 3212 3212 3213 3213 3215 3216 3217 3219 3221 3222 3222 3222 3222 3222 3223 3223 3223
3174 3173 3172 3166 3172 3175 3177 3181 3182 3183 3185 3186 3188 3187 3190 3197 3200 3202 3204 3207 3211 3213 3213 3214 3215 3216 3216 3215 3215 3215 3214 3214 3213 3213 3214 3215 3217 3218 3219 3221 3222 3224 3224 3225 3224 3224 3225 3225 3225
3172 3173 3172 3171 3173 3175 3178 3181 3183 3184 3185 3186 3189 3187 3192 3200 3202 3204 3207 3209 3212 3214 3215 3216 3217 3217 3217 3217 3217 3217 3217 3215 3214 3214 3215 3216 3218 3220 3221 3223 3224 3226 3227 3226 3226 3227 3227 3227 3228
3170 3173 3173 3173 3173 3174 3178 3181 3184 3186 3187 3188 3190 3190 3193 3199 3203 3207 3208 3209 3212 3214 3216 3217 3218 3219 3218 3219 3218 3219 3219 3218 3217 3217 3217 3219 3220 3222 3224 3225 3227 3228 3229 3229 3230 3229 3229 3230 3230
3172 3173 3173 3172 3171 3173 3180 3179 3184 3186 3187 3191 3193 3193 3196 3198 3203 3206 3209 3211 3212 3214 3216 3218 3219 3220 3219 3220 3220 3222 3221 3220 3220 3221 3221 3221 3222 3224 3226 3227 3229 3230 3231 3231 3232 3232 3232 3232 3232
3171 3173 3173 3174 3174 3173 3179 3183 3184 3186 3189 3192 3192 3196 3198 3201 3206 3208 3211 3214 3214 3215 3217 3219 3220 3221 3221 3222 3222 3222 3223 3222 3222 3223 3224 3225 3226 3227 3230 3231 3232 3233 3234 3234 3234 3234 3233 3235 3235
3174 3174 3173 3175 3179 3178 3180 3184 3189 3189 3190 3192 3191 3194 3199 3204 3209 3211 3213 3215 3216 3217 3219 3220 3221 3223 3223 3224 3224 3224 3225 3225 3225 3227 3228 3229 3230 3231 3232 3233 3234 3235 3235 3235 3236 3236 3235 3236 3237
3176 3176 3176 3176 3180 3180 3182 3185 3183 3191 3194 3196 3195 3198 3201 3207 3210 3212 3213 3216 3219 3220 3220 3221 3222 3224 3225 3226 3227 3227 3227 3229 3228 3231 3232 3233 3234 3234 3235 3236 3237 3238 3238 3238 3238 3239 3240 3239 3239
3175 3180 3181 3181 3182 3183 3185 3187 3190 3191 3193 3198 3197 3202 3205 3208 3211 3214 3215 3217 3220 3221 3221 3221 3224 3225 3227 3227 3228 3230 3230 3230 3231 3234 3235 3236 3235 3236 3238 3240 3240 3241 3240 3239 3241 3242 3242 3241 3242
3177 3181 3178 3181 3186 3185 3186 3187 3190 3192 3192 3198 3199 3202 3206 3208 3212 3215 3217 3219 3221 3222 3222 3223 3225 3227 3229 3229 3230 3231 3232 3232 3232 3234 3236 3237 3237 3238 3241 3242 3242 3243 3242 3242 3244 3244 3244 3243 3243
3175 3181 3181 3184 3183 3185 3189 3188 3190 3192 3193 3197 3201 3203 3205 3208 3213 3216 3218 3220 3222 3222 3224 3225 3226 3229 3231 3231 3232 3232 3234 3233 3233 3236 3237 3238 3239 3240 3242 3244 3244 3244 3244 3245 3246 3246 3246 3247 3246
3174 3178 3177 3179 3182 3184 3188 3189 3189 3192 3196 3198 3202 3204 3209 3209 3211 3215 3219 3221 3223 3224 3225 3227 3228 3229 3231 3232 3234 3234 3235 3237 3237 3238 3238 3240 3241 3242 3243 3244 3245 3246 3246 3247 3249 3250 3249 3249 3249
3172 3173 3175 3179 3182 3183 3187 3190 3187 3193 3196 3199 3201 3205 3208 3211 3213 3216 3220 3223 3225 3226 3228 3229 3230 3231 3232 3233 3234 3236 3239 3239 3240 3241 3241 3241 3244 3244 3244 3245 3247 3248 3248 3249 3251 3252 3251 3251 3252
3169 3172 3176 3178 3181 3183 3185 3187 3187 3185 3190 3195 3200 3204 3208 3210 3212 3216 3220 3223 3226 3227 3229 3229 3231 3231 3232 3235 3235 3237 3239 3240 3241 3242 3242 3242 3244 3245 3245 3245 3246 3247 3249 3251 3253 3253 3253 3253 3253
3168 3171 3175 3177 3179 3181 3185 3185 3187 3188 3190 3195 3198 3202 3207 3210 3212 3216 3220 3223 3225 3228 3229 3230 3231 3231 3233 3235 3237 3240 3240 3241 3243 3243 3243 3243 3244 3245 3246 3247 3249 3249 3250 3251 3253 3254 3255 3256 3255
3166 3169 3175 3178 3177 3181 3183 3186 3190 3187 3188 3192 3196 3201 3205 3208 3212 3214 3217 3221 3224 3227 3229 3231 3232 3232 3234 3235 3236 3238 3241 3242 3243 3243 3244 3245 3244 3245 3246 3248 3249 3249 3251 3252 3254 3255 3257 3258 3258
3164 3168 3172 3176 3176 3178 3181 3183 3183 3185 3188 3192 3196 3200 3203 3207 3209 3213 3216 3220 3223 3225 3229 3230 3232 3232 3233 3234 3237 3238 3240 3242 3244 3245 3245 3245 3246 3245 3246 3248 3249 3250 3251 3252 3254 3255 3258 3258 3259
3162 3167 3170 3173 3174 3175 3177 3178 3177 3181 3186 3189 3193 3198 3201 3205 3208 3210 3214 3218 3223 3225 3228 3229 3231 3232 3232 3234 3236 3239 3241 3242 3244 3245 3245 3245 3245 3244 3246 3247 3248 3250 3250 3251 3252 3254 3257 3258 3259
3159 3165 3168 3169 3169 3172 3175 3175 3173 3179 3183 3186 3190 3195 3199 3203 3205 3208 3211 3216 3220 3224 3226 3227 3229 3231 3231 3233 3236 3238 3239 3241 3242 3245 3245 3246 3246 3245 3245 3247 3248 3249 3251 3252 3252 3255 3256 3258 3260
3160 3163 3164 3164 3166 3169 3171 3173 3174 3171 3173 3181 3186 3191 3195 3199 3204 3207 3209 3213 3217 3221 3223 3225 3227 3230 3231 3232 3234 3237 3239 3240 3242 3244 3244 3247 3247 3246 3245 3246 3248 3249 3250 3253 3253 3254 3255 3257 3259
3154 3159 3161 3166 3166 3166 3166 3171 3170 3172 3174 3177 3181 3187 3191 3195 3197 3203 3205 3208 3212 3216 3219 3223 3225 3227 3228 3229 3232 3235 3238 3240 3242 3243 3244 3246 3246 3246 3248 3248 3248 3249 3250 3251 3251 3253 3255 3256 3258
3150 3154 3156 3159 3164 3161 3163 3165 3165 3166 3174 3180 3186 3184 3186 3191 3195 3198 3202 3205 3208 3212 3217 3220 3223 3225 3225 3226 3228 3233 3236 3238 3240 3241 3242 3244 3245 3245 3248 3248 3248 3249 3249 3250 3250 3252 3253 3254 3257
3147 3149 3155 3156 3157 3155 3160 3164 3161 3163 3170 3175 3177 3177 3181 3184 3189 3193 3197 3200 3203 3208 3213 3217 3221 3224 3223 3224 3227 3230 3233 3236 3238 3240 3242 3242 3244 3245 3247 3248 3248 3248 3250 3249 3249 3249 3251 3252 3254
3142 3149 3152 3153 3155 3157 3157 3158 3159 3161 3166 3168 3170 3175 3179 3181 3185 3188 3192 3196 3201 3203 3208 3213 3216 3221 3221 3222 3225 3228 3231 3234 3237 3238 3241 3242 3244 3245 3246 3246 3247 3247 3248 3248 3247 3248 3249 3251 3252
3142 3144 3148 3150 3150 3151 3158 3161 3161 3164 3165 3168 3171 3174 3177 3181 3185 3188 3189 3194 3198 3201 3203 3207 3211 3214 3217 3218 3220 3223 3229 3233 3235 3237 3239 3240 3241 3244 3244 3243 3244 3246 3247 3248 3247 3247 3248 3249 3250
3141 3144 3145 3147 3149 3148 3149 3160 3160 3164 3167 3169 3171 3174 3178 3181 3184 3187 3188 3191 3189 3193 3198 3203 3195 3208 3214 3215 3217 3220 3223 3227 3231 3234 3236 3237 3240 3242 3242 3242 3243 3244 3245 3246 3246 3246 3247 3247 3249